[[{"header":{"parameterUnit":"m.s-1","parameterCategory":1,"la1":30.2991,"la2":30.254,"lo1":-89.0895,"lo2":-89.0444,"dy":0.0017,"dx":0.0017,"nx":28,"ny":28,"refTime":"2025-11-12T03:00:00:Z","depth":0,"parameterNumber":2,"parameterNumberName":"U-component_of_WINDS"},"data":[0,0,0,0,0,0,0,0,0,0,0,0,0,0,0,0,0,0,0,0,0,0,0,0,0,0,0,0,0,0,0,0,0,0,0,0,0,0,0,0,0,0,0,0,0,0,0,0,0,0,0,0,0,0,0,0,0,0,2.9701,2.9701,0,2.9772,2.9773,2.9774,2.9775,2.9774,2.9773,2.9772,2.9846,2.9848,2.9851,0,0,0,0,0,0,0,0,0,0,0,0,0,2.9563,2.9566,2.9701,2.9701,2.9702,2.9772,2.9773,2.9774,2.9775,2.9774,2.9773,2.9772,2.9845,2.9848,2.9851,0,0,0,0,0,0,0,0,0,0,0,0,0,2.9628,2.9567,2.97,2.9711,2.9713,2.9772,2.9773,2.9775,2.9775,2.9774,2.9773,2.9771,2.9844,2.9848,2.9852,2.9905,0,0,2.9865,2.9866,0,0,0,0,0,0,0,0,2.9624,2.9633,2.9709,2.9711,2.9713,2.9763,2.9752,2.9818,2.9776,2.9752,2.9772,2.9771,2.9819,2.9825,2.9842,2.9908,2.9911,2.9865,2.9868,2.9869,2.9871,0,0,0,0,0,0,0,2.962,2.963,2.9729,2.971,2.9712,2.9712,2.972,2.9764,2.9792,2.9754,2.9754,2.9762,2.982,2.9838,2.9844,2.9913,2.9865,2.9869,2.9871,2.9873,3.0025,3.0026,0,0,0,0,0,0,2.9613,2.9626,2.9727,2.9731,2.9664,2.9716,2.9724,2.9748,2.9792,2.9797,2.9764,2.9762,2.9831,2.9839,2.9846,2.991,2.9869,2.9873,2.9876,3.0023,3.0025,3.0027,0,0,0,0,0,0,2.961,2.9622,2.9724,2.9679,2.9692,2.972,2.9747,2.9751,2.9768,2.9799,2.9804,2.9777,2.9831,2.984,2.989,2.9913,2.9875,2.9879,3.0021,3.0024,3.0026,3.0039,0,0,0,0,0,0,2.9606,2.9621,2.9642,2.9679,2.9694,2.9767,2.9748,2.9753,2.9776,2.9775,2.9813,2.9818,2.983,2.9884,2.9894,2.9918,2.9882,3.002,3.0022,3.0025,3.0037,3.0042,3.0046,0,0,0,0,0,2.9601,2.9643,2.9643,2.9655,2.9721,2.9768,2.9777,2.979,2.9777,2.9798,2.9818,2.9817,2.9909,2.9889,2.9901,2.9926,3.0018,3.0022,3.0025,3.0035,3.0041,3.0046,0,0,0,0,0,0,2.9607,2.9648,2.9648,2.9703,2.9732,2.9768,2.9795,2.9796,2.9829,2.9827,2.9842,2.9851,2.99,2.9918,2.9895,2.9979,2.9962,2.9968,2.9965,2.9971,2.9975,2.997,2.9886,0,0,0,0,0,2.9615,2.965,2.9684,2.9729,2.9744,2.9767,2.9788,2.9796,2.9826,2.9839,2.9862,2.9892,2.9927,2.995,2.9985,3.004,3.0047,3.0063,3.0067,3.0071,3.0075,3.0104,3.0111,3.0038,3.0038,3.0038,0,0,2.9631,2.9658,2.9679,2.9731,2.9754,2.979,2.9777,2.9816,2.9842,2.9845,2.9893,2.9911,2.9945,2.9997,3.0021,3.0013,3.0097,3.0075,3.0078,3.008,3.0109,3.0116,3.0122,3.004,3.004,3.004,0,0,2.9679,2.9703,2.9743,2.9766,2.9802,2.9817,2.9826,2.9862,2.9874,2.9923,2.9925,2.9957,3.0018,3.0042,3.0062,3.0118,3.0117,3.0129,3.0152,3.018,3.0186,3.0191,3.021,3.0216,3.0133,3.0133,3.0133,0,2.9694,2.9749,2.9763,2.9802,2.9824,2.9828,2.9867,2.989,2.9935,2.995,2.9941,3.0017,3.004,3.0097,3.0111,3.0127,3.0138,3.0124,3.0184,3.0189,3.0194,3.0212,3.0219,3.0134,3.0134,3.0134,3.0134,0,2.9766,2.9803,2.9831,2.9874,2.99,2.9939,2.9958,2.9983,2.9988,3.0004,3.0053,3.0081,3.012,3.0135,3.0141,3.0193,3.0186,3.018,3.0163,3.0202,3.0219,3.0226,3.0136,3.0136,3.0135,3.0135,0,0,2.9819,2.9869,2.9879,2.9898,2.9937,2.9967,3.0006,3.0044,3.0064,3.0095,3.0127,3.0179,3.0173,3.0196,3.0205,3.023,3.0271,3.022,3.0221,3.0228,3.0328,3.0332,3.034,3.0271,3.0272,3.0273,3.0325,0,2.987,2.994,2.9953,3.0013,3.0048,3.0051,3.0085,3.0113,3.0128,3.0159,3.0177,3.0212,3.0203,3.0216,3.0241,3.026,3.0291,3.0257,3.03,3.0302,3.0291,3.0349,3.0353,3.04,3.0332,3.0333,3.0334,0,2.9939,2.9971,3.0035,3.0069,3.0084,3.0114,3.015,3.018,3.0211,3.022,3.0245,3.0251,3.0291,3.0273,3.0327,3.0304,3.0323,3.0335,3.0337,3.0341,3.0319,3.0353,3.0416,3.0422,3.0345,3.0344,3.0343,0,2.997,3.003,3.0075,3.0091,3.0132,3.0153,3.0171,3.0201,3.0223,3.0255,3.0269,3.0305,3.0324,3.0351,3.0366,3.0352,3.042,3.0403,3.0428,3.0427,3.0441,3.044,3.0507,3.0455,3.0455,3.0455,3.0455,0,3.0025,3.0064,3.0089,3.0117,3.016,3.0175,3.0217,3.0235,3.0261,3.0292,3.0297,3.0326,3.0345,3.0376,3.0388,3.0431,3.044,3.0448,3.045,3.0447,3.0446,3.0459,3.0455,3.0457,3.0456,3.0456,3.0456,0,3.0067,3.0086,3.0135,3.017,3.018,3.021,3.0239,3.0266,3.0281,3.032,3.033,3.0355,3.0392,3.0409,3.0455,3.0463,3.0511,3.0512,3.0501,3.0502,3.0525,3.0522,3.0602,3.0612,3.0555,3.0555,3.0556,0,3.01,3.013,3.0168,3.0189,3.0207,3.0241,3.0264,3.028,3.0303,3.034,3.0362,3.0399,3.043,3.0488,3.051,3.0545,3.0546,3.0571,3.0551,3.0546,3.0545,3.0543,3.0545,3.0575,3.0575,3.0576,3.0576,0,3.0157,3.0165,3.0197,3.0233,3.026,3.0289,3.0317,3.0334,3.0354,3.038,3.0417,3.0441,3.0488,3.0524,3.056,3.0578,3.058,3.0582,3.059,3.0586,3.0577,3.0581,3.051,3.058,3.058,3.0579,3.0579,3.0579,3.0195,3.0221,3.0252,3.0287,3.031,3.0336,3.0363,3.0382,3.0414,3.0453,3.046,3.05,3.0529,3.0578,3.0598,3.0628,3.0623,3.0634,3.0636,3.0639,3.0639,3.0573,3.0635,3.0635,3.0635,3.0635,3.0635,0,3.0251,3.0271,3.0304,3.0343,3.0371,3.0371,3.0402,3.0425,3.046,3.0487,3.0517,3.056,3.0595,3.0619,3.0655,3.0675,3.0677,3.0684,3.0682,3.0686,3.0643,3.0632,3.0682,3.0682,3.0682,3.0682,3.0682,3.0682,3.0284,3.0328,3.0339,3.0394,3.0413,3.0452,3.047,3.0494,3.0516,3.0563,3.0593,3.0608,3.0634,3.0671,3.0703,3.0709,3.0722,3.0729,3.0735,3.0694,3.0689,3.0684,3.0674,3.0732,3.0732,3.0775,3.0775,3.0775]},{"header":{"parameterUnit":"m.s-1","parameterCategory":1,"la1":30.2991,"la2":30.254,"lo1":-89.0895,"lo2":-89.0444,"dy":0.0017,"dx":0.0017,"nx":28,"ny":28,"refTime":"2025-11-12T03:00:00:Z","depth":0,"parameterNumber":3,"parameterNumberName":"V-component_of_WINDS"},"data":[0,0,0,0,0,0,0,0,0,0,0,0,0,0,0,0,0,0,0,0,0,0,0,0,0,0,0,0,0,0,0,0,0,0,0,0,0,0,0,0,0,0,0,0,0,0,0,0,0,0,0,0,0,0,0,0,0,0,2.6895,2.6895,0,2.6886,2.6886,2.6886,2.6883,2.6883,2.6883,2.6883,2.6873,2.6873,2.6873,0,0,0,0,0,0,0,0,0,0,0,0,0,2.6907,2.6907,2.6895,2.6895,2.6895,2.6886,2.6886,2.6886,2.6883,2.6883,2.6883,2.6883,2.6873,2.6873,2.6873,0,0,0,0,0,0,0,0,0,0,0,0,0,2.6901,2.6907,2.6895,2.6892,2.6892,2.6886,2.6886,2.6886,2.6883,2.6883,2.6883,2.6883,2.6873,2.6873,2.6873,2.6869,0,0,2.6871,2.6871,0,0,0,0,0,0,0,0,2.6901,2.69,2.6893,2.6892,2.6892,2.6886,2.6887,2.688,2.6883,2.6886,2.6883,2.6883,2.6877,2.6877,2.6875,2.6868,2.6868,2.6871,2.6871,2.6871,2.6871,0,0,0,0,0,0,0,2.6901,2.69,2.6891,2.6893,2.6892,2.6891,2.689,2.6886,2.6882,2.6886,2.6886,2.6885,2.6877,2.6875,2.6875,2.6868,2.6871,2.6871,2.6871,2.687,2.6857,2.6857,0,0,0,0,0,0,2.6903,2.6901,2.6892,2.6891,2.6897,2.6891,2.689,2.6888,2.6882,2.6881,2.6885,2.6885,2.6876,2.6875,2.6874,2.6869,2.6871,2.687,2.687,2.6857,2.6857,2.6857,0,0,0,0,0,0,2.6903,2.6902,2.6892,2.6896,2.6895,2.689,2.6888,2.6888,2.6886,2.6881,2.688,2.6884,2.6876,2.6875,2.687,2.6869,2.687,2.687,2.6857,2.6857,2.6857,2.6859,0,0,0,0,0,0,2.6903,2.6902,2.6901,2.6896,2.6895,2.6889,2.6888,2.6887,2.6885,2.6885,2.688,2.6879,2.6876,2.6871,2.687,2.6868,2.6869,2.6857,2.6857,2.6857,2.6859,2.6859,2.6859,0,0,0,0,0,2.6904,2.6902,2.6901,2.69,2.6893,2.6889,2.6888,2.6885,2.6885,2.6884,2.688,2.6879,2.6869,2.687,2.6869,2.6867,2.6857,2.6857,2.6857,2.6859,2.6859,2.6859,0,0,0,0,0,0,2.6906,2.6901,2.69,2.6896,2.6893,2.6888,2.6886,2.6885,2.6881,2.6881,2.6877,2.6876,2.6872,2.6869,2.6871,2.6863,2.6863,2.6862,2.6865,2.6865,2.6865,2.6865,2.6869,0,0,0,0,0,2.6906,2.6904,2.6899,2.6896,2.6895,2.6891,2.6889,2.6887,2.6883,2.6881,2.6878,2.6874,2.6869,2.6867,2.6863,2.6858,2.6857,2.6856,2.6856,2.6856,2.6856,2.6852,2.6852,2.6856,2.6856,2.6856,0,0,2.6907,2.6903,2.6902,2.6897,2.6894,2.689,2.689,2.6886,2.6883,2.6881,2.6876,2.6873,2.6868,2.6863,2.6861,2.6861,2.6854,2.6856,2.6856,2.6855,2.6852,2.6852,2.6851,2.6856,2.6856,2.6856,0,0,2.6905,2.6903,2.69,2.6897,2.6893,2.689,2.689,2.6885,2.6883,2.6878,2.6876,2.6872,2.6865,2.6862,2.6859,2.6856,2.6854,2.6854,2.6854,2.685,2.685,2.685,2.6848,2.6848,2.6854,2.6854,2.6854,0,2.6906,2.6902,2.6899,2.6895,2.6893,2.689,2.6887,2.6884,2.6879,2.6877,2.6877,2.6868,2.6864,2.6858,2.6857,2.6855,2.6854,2.6855,2.6851,2.685,2.685,2.6848,2.6848,2.6854,2.6854,2.6854,2.6854,0,2.6903,2.6899,2.6897,2.6892,2.689,2.6886,2.6883,2.688,2.6878,2.6875,2.687,2.6866,2.686,2.6859,2.6857,2.6852,2.6852,2.6851,2.6851,2.685,2.6848,2.6847,2.6854,2.6854,2.6854,2.6854,0,0,2.6903,2.6896,2.6896,2.6893,2.6888,2.6885,2.6881,2.6876,2.6874,2.687,2.6866,2.686,2.6859,2.6856,2.6854,2.6851,2.6848,2.685,2.685,2.685,2.6841,2.6842,2.6841,2.6846,2.6846,2.6846,2.6842,0,2.6901,2.6895,2.6892,2.6887,2.6883,2.688,2.6877,2.6873,2.687,2.6866,2.6863,2.6858,2.6858,2.6856,2.6853,2.6849,2.6846,2.6849,2.6842,2.6842,2.6844,2.6841,2.6841,2.6838,2.6841,2.6841,2.6841,0,2.6898,2.6894,2.6889,2.6884,2.6882,2.6879,2.6874,2.6871,2.6866,2.6863,2.686,2.6857,2.6852,2.6853,2.6845,2.6847,2.6844,2.6842,2.6842,2.6841,2.6842,2.684,2.6836,2.6836,2.684,2.684,2.684,0,2.6899,2.6892,2.6888,2.6886,2.688,2.6878,2.6875,2.687,2.6867,2.6862,2.686,2.6855,2.6852,2.6847,2.6843,2.6844,2.6836,2.6836,2.6834,2.6834,2.6832,2.6832,2.6828,2.683,2.683,2.683,2.683,0,2.6897,2.6894,2.6888,2.6886,2.6882,2.6878,2.6874,2.6871,2.6866,2.6862,2.6859,2.6856,2.685,2.6846,2.6842,2.6836,2.6835,2.6833,2.6832,2.6833,2.6833,2.6831,2.6831,2.683,2.683,2.683,2.683,0,2.6897,2.6894,2.6889,2.6883,2.6881,2.6879,2.6873,2.687,2.6867,2.6862,2.6861,2.6855,2.685,2.6845,2.6837,2.6835,2.6829,2.6828,2.6831,2.683,2.6828,2.6828,2.6822,2.6821,2.6824,2.6824,2.6824,0,2.6896,2.6894,2.6888,2.6885,2.6882,2.6878,2.6875,2.6871,2.6868,2.6862,2.6859,2.6853,2.6848,2.6839,2.6834,2.6828,2.6827,2.6825,2.6826,2.6827,2.6827,2.6827,2.6826,2.6825,2.6825,2.6825,2.6825,0,2.6895,2.6893,2.6889,2.6884,2.6881,2.6877,2.6872,2.687,2.6865,2.6862,2.6856,2.6852,2.6844,2.6838,2.6832,2.6828,2.6825,2.6825,2.6824,2.6825,2.6827,2.6826,2.683,2.6825,2.6825,2.6825,2.6825,2.6825,2.6894,2.6892,2.6887,2.6882,2.6879,2.6875,2.6872,2.6868,2.6863,2.6857,2.6854,2.6848,2.6842,2.6833,2.6829,2.6824,2.6824,2.6823,2.6822,2.6822,2.6822,2.6828,2.6823,2.6823,2.6823,2.6823,2.6823,0,2.6893,2.6889,2.6885,2.6879,2.6876,2.6874,2.6869,2.6866,2.6861,2.6856,2.6851,2.6844,2.6838,2.6832,2.6826,2.6822,2.6821,2.6821,2.6821,2.682,2.6823,2.6824,2.6822,2.6822,2.6822,2.6822,2.6822,2.6822,2.6891,2.6887,2.6884,2.6877,2.6874,2.6869,2.6866,2.6862,2.6858,2.685,2.6845,2.6842,2.6836,2.6829,2.6823,2.6821,2.6819,2.6819,2.6817,2.682,2.682,2.682,2.6821,2.6818,2.6818,2.6814,2.6814,2.6814]}]]